Riverside, CA

5:40 AM PDT on June 24, 2017 (GMT -0700)
Riverside Municipal

Weather History for KRAL - August, 2012

Change the Weather History Date:

Tuesday, August 7, 2012

  Actual Average Record
Temperature  
Mean Temperature 89 °F 80 °F  
Max Temperature 104 °F 95 °F 106 °F (1970)
Min Temperature 73 °F 65 °F 45 °F (1950)
Degree Days  
Heating Degree Days 0 0  
Month to date heating degree days 0 0  
Since 1 June heating degree days 0 2  
Since 1 July heating degree days 0 0  
Cooling Degree Days 24 15  
Month to date cooling degree days 111 105  
Year to date cooling degree days 1012 917  
Since 1 June cooling degree days 741 740  
Growing Degree Days 38 (Base 50)    
Moisture  
Dew Point 58 °F    
Average Humidity 42    
Maximum Humidity 64    
Minimum Humidity 20    
Precipitation  
Precipitation 0.00 in 0.01 in 0.31 in (1967)
Month to date precipitation 0.00 0.05  
Year to date precipitation 2.85 9.31  
Since 1 July precipitation T  
Snow  
Snow 0.00 in - - ()
Month to date snowfall 0.0  
Year to date snowfall 0.0  
Snow Depth 0.00 in    
Sea Level Pressure  
Sea Level Pressure 29.85 in    
Wind  
Wind Speed 4 mph (West)    
Max Wind Speed 16 mph    
Max Gust Speed 21 mph    
Visibility 10 miles    
Events      
T = Trace of Precipitation, MM = Missing Value Source: NWS Daily Summary

Daily Weather History Graph

Daily Weather History Graph

Search for Another Location

Airport or City:

Trip Planner

Search our weather history database for the weather conditions in past years. The results will help you decide how hot, cold, wet, or windy it might be!

Date:

Astronomy

Aug. 07, 2012 Rise Set
Actual Time 6:06 AM PDT 7:44 PM PDT
Civil Twilight 5:39 AM PDT 8:11 PM PDT
Nautical Twilight 5:06 AM PDT 8:43 PM PDT
Astronomical Twilight 4:32 AM PDT 9:17 PM PDT
Moon 10:48 PM PDT (8/7) 11:38 AM PDT (8/7)
Length of Visible Light 14h 32m
Length of Day
13h 38m
Waning Gibbous, 69% of the Moon is Illuminated
Aug 7
Waning Gibbous
Aug 9
Last Quarter
Aug 17
New
Aug 24
First Quarter
Aug 31
Full

Hourly Weather History & Observations

Time (PDT) Temp. Heat Index Dew Point Humidity Pressure Visibility Wind Dir Wind Speed Gust Speed Precip Events Conditions
12:53 AM 78.1 °F - 57.9 °F 50% 29.87 in 10.0 mi Calm Calm - N/A   Clear
1:53 AM 77.0 °F - 59.0 °F 54% 29.86 in 10.0 mi Calm Calm - N/A   Clear
2:53 AM 77.0 °F - 59.0 °F 54% 29.85 in 10.0 mi Calm Calm - N/A   Clear
3:53 AM 75.9 °F - 60.1 °F 58% 29.85 in 10.0 mi Calm Calm - N/A   Clear
4:53 AM 73.0 °F - 61.0 °F 66% 29.85 in 10.0 mi Calm Calm - N/A   Clear
5:53 AM 73.9 °F - 61.0 °F 64% 29.87 in 10.0 mi Calm Calm - N/A   Clear
6:53 AM 73.9 °F - 57.0 °F 55% 29.89 in 10.0 mi Calm Calm - N/A   Clear
7:53 AM 77.0 °F - 60.1 °F 56% 29.90 in 10.0 mi Calm Calm - N/A   Clear
8:53 AM 81.0 °F 81.3 °F 59.0 °F 47% 29.90 in 10.0 mi Calm Calm - N/A   Clear
9:53 AM 86.0 °F 85.4 °F 59.0 °F 40% 29.89 in 10.0 mi Calm Calm - N/A   Clear
10:53 AM 91.9 °F 90.0 °F 55.0 °F 29% 29.88 in 10.0 mi West 4.6 mph - N/A   Partly Cloudy
11:53 AM 96.1 °F 93.8 °F 54.0 °F 24% 29.87 in 10.0 mi WNW 5.8 mph - N/A   Partly Cloudy
12:53 PM 100.0 °F 99.2 °F 57.0 °F 24% 29.85 in 10.0 mi West 8.1 mph - N/A   Partly Cloudy
1:53 PM 102.0 °F 100.1 °F 54.0 °F 20% 29.83 in 10.0 mi WNW 10.4 mph 16.1 mph N/A   Partly Cloudy
2:53 PM 102.9 °F 102.4 °F 57.0 °F 22% 29.81 in 10.0 mi West 11.5 mph 18.4 mph N/A   Partly Cloudy
3:53 PM 99.0 °F 98.1 °F 57.0 °F 25% 29.80 in 10.0 mi West 12.7 mph 19.6 mph N/A   Scattered Clouds
4:53 PM 98.1 °F 96.8 °F 57.0 °F 25% 29.80 in 10.0 mi West 11.5 mph - N/A   Clear
5:53 PM 93.9 °F 92.6 °F 57.0 °F 29% 29.79 in 10.0 mi West 11.5 mph 18.4 mph N/A   Scattered Clouds
6:53 PM 90.0 °F 88.1 °F 55.9 °F 31% 29.81 in 10.0 mi West 10.4 mph - N/A   Scattered Clouds
7:53 PM 87.1 °F 85.3 °F 55.0 °F 33% 29.82 in 10.0 mi WNW 4.6 mph - N/A   Clear
8:53 PM 84.9 °F 83.9 °F 57.0 °F 38% 29.84 in 10.0 mi Variable 4.6 mph - N/A   Clear
9:53 PM 82.0 °F 81.7 °F 57.0 °F 42% 29.85 in 10.0 mi West 3.5 mph - N/A   Clear
10:53 PM 81.0 °F 81.0 °F 57.0 °F 44% 29.85 in 10.0 mi Calm Calm - N/A   Clear
11:53 PM 81.0 °F 81.1 °F 57.9 °F 45% 29.86 in 10.0 mi Calm Calm - N/A   Clear